• In Hungary
  • List of Countries
  • For 7 days
  • Water Temperature
  • Satellite Maps
  • Weather Map
  • News
  • Weather Widgets
  • user-avatar
    Login

    Hourly Weather Río Gallegos

    Today, 16 October, Tuesday

    Time Temperature Precipitation Wind Pressure Humidity
    00:00 +4°C° 0 mm 2 mps 740 mmHg 59%
    01:00 +4°C° 0 mm 2 mps 740 mmHg 61%
    02:00 +3°C° 0 mm 2 mps 740 mmHg 61%
    03:00 +3°C° 0 mm 2 mps 741 mmHg 61%
    04:00 +3°C° 0 mm 2 mps 741 mmHg 62%
    05:00 +3°C° 0 mm 3 mps 741 mmHg 59%
    06:00 +4°C° 0 mm 3 mps 742 mmHg 56%
    07:00 +5°C° 0 mm 3 mps 742 mmHg 53%
    08:00 +7°C° 0 mm 3 mps 743 mmHg 50%
    09:00 +7°C° 0 mm 4 mps 743 mmHg 46%
    10:00 +8°C° 0 mm 4 mps 744 mmHg 43%
    11:00 +10°C° 0 mm 4 mps 744 mmHg 42%
    12:00 +10°C° 0 mm 5 mps 745 mmHg 40%
    13:00 +10°C° 0 mm 5 mps 746 mmHg 39%
    14:00 +10°C° 0 mm 6 mps 746 mmHg 41%
    15:00 +10°C° 0 mm 6 mps 747 mmHg 43%
    16:00 +10°C° 0 mm 7 mps 747 mmHg 46%
    17:00 +9°C° 0.1 mm 7 mps 749 mmHg 53%
    18:00 +8°C° 0.1 mm 7 mps 750 mmHg 60%
    19:00 +5°C° 0.1 mm 6 mps 751 mmHg 67%
    20:00 +5°C° 0 mm 7 mps 752 mmHg 68%
    21:00 +4°C° 0 mm 7 mps 753 mmHg 68%
    22:00 +4°C° 0 mm 8 mps 754 mmHg 69%
    23:00 +2°C° 0 mm 9 mps 755 mmHg 69%

    Tomorrow, 17 October, Wednesday

    Time Temperature Precipitation Wind Pressure Humidity
    00:00 +2°C° 0 mm 9 mps 756 mmHg 69%
    01:00 +1°C° 0 mm 10 mps 757 mmHg 70%
    02:00 0°C° 0 mm 10 mps 759 mmHg 69%
    03:00 -1°C° 0 mm 11 mps 760 mmHg 68%
    04:00 -2°C° 0 mm 11 mps 761 mmHg 67%
    05:00 -1°C° 0 mm 11 mps 762 mmHg 65%
    06:00 -1°C° 0 mm 12 mps 763 mmHg 63%
    07:00 -1°C° 0 mm 12 mps 764 mmHg 61%
    08:00 +1°C° 0 mm 11 mps 765 mmHg 59%
    09:00 +2°C° 0 mm 11 mps 766 mmHg 57%
    10:00 +3°C° 0 mm 11 mps 767 mmHg 55%
    11:00 +3°C° 0 mm 10 mps 768 mmHg 54%
    12:00 +3°C° 0 mm 10 mps 768 mmHg 52%
    13:00 +5°C° 0 mm 9 mps 769 mmHg 51%
    14:00 +5°C° 0 mm 8 mps 769 mmHg 51%
    15:00 +4°C° 0 mm 8 mps 770 mmHg 52%
    16:00 +4°C° 0 mm 7 mps 770 mmHg 53%
    17:00 +3°C° 0 mm 6 mps 771 mmHg 57%
    18:00 +3°C° 0 mm 6 mps 772 mmHg 61%
    19:00 +2°C° 0 mm 5 mps 773 mmHg 65%
    20:00 +1°C° 0 mm 4 mps 774 mmHg 68%
    21:00 +2°C° 0 mm 3 mps 775 mmHg 70%
    22:00 +2°C° 0 mm 3 mps 775 mmHg 73%
    23:00 +2°C° 0 mm 2 mps 775 mmHg 75%

    Day after tomorrow, 18 October, Thursday

    Time Temperature Precipitation Wind Pressure Humidity
    00:00 +2°C° 0 mm 2 mps 776 mmHg 77%
    01:00 +2°C° 0 mm 1 mps 776 mmHg 79%
    02:00 +2°C° 0 mm 1 mps 776 mmHg 79%
    03:00 +2°C° 0 mm 1 mps 776 mmHg 79%
    04:00 +2°C° 0 mm 1 mps 777 mmHg 79%
    05:00 +3°C° 0 mm 1 mps 777 mmHg 74%
    06:00 +4°C° 0 mm 1 mps 777 mmHg 69%
    07:00 +4°C° 0 mm 2 mps 777 mmHg 64%
    08:00 +5°C° 0 mm 2 mps 777 mmHg 59%
    09:00 +6°C° 0 mm 2 mps 777 mmHg 54%
    10:00 +7°C° 0 mm 2 mps 777 mmHg 49%
    11:00 +8°C° 0 mm 2 mps 777 mmHg 46%
    12:00 +9°C° 0 mm 3 mps 776 mmHg 43%
    13:00 +10°C° 0 mm 3 mps 776 mmHg 40%
    14:00 +10°C° 0 mm 3 mps 775 mmHg 40%
    15:00 +10°C° 0 mm 4 mps 775 mmHg 41%
    16:00 +10°C° 0 mm 4 mps 774 mmHg 41%
    17:00 +8°C° 0 mm 4 mps 774 mmHg 48%
    18:00 +7°C° 0 mm 4 mps 775 mmHg 54%
    19:00 +6°C° 0 mm 5 mps 775 mmHg 61%
    20:00 +5°C° 0 mm 4 mps 774 mmHg 63%
    21:00 +5°C° 0 mm 4 mps 774 mmHg 65%
    22:00 +4°C° 0 mm 4 mps 774 mmHg 68%
    23:00 +4°C° 0 mm 4 mps 774 mmHg 66%

    19 October, Friday

    Time Temperature Precipitation Wind Pressure Humidity
    00:00 +4°C° 0 mm 4 mps 774 mmHg 65%
    01:00 +4°C° 0 mm 3 mps 773 mmHg 63%
    02:00 +4°C° 0 mm 3 mps 773 mmHg 62%
    03:00 +4°C° 0 mm 3 mps 773 mmHg 60%
    04:00 +4°C° 0 mm 3 mps 772 mmHg 58%
    05:00 +5°C° 0 mm 3 mps 772 mmHg 55%
    06:00 +7°C° 0 mm 3 mps 772 mmHg 51%
    07:00 +8°C° 0 mm 3 mps 771 mmHg 48%
    08:00 +10°C° 0 mm 3 mps 771 mmHg 45%
    09:00 +11°C° 0 mm 4 mps 771 mmHg 42%
    10:00 +12°C° 0 mm 5 mps 770 mmHg 39%
    11:00 +13°C° 0 mm 5 mps 769 mmHg 38%
    12:00 +14°C° 0 mm 5 mps 769 mmHg 38%
    13:00 +15°C° 0 mm 5 mps 768 mmHg 37%
    14:00 +14°C° 0 mm 6 mps 767 mmHg 39%
    15:00 +14°C° 0 mm 6 mps 767 mmHg 41%
    16:00 +14°C° 0 mm 6 mps 766 mmHg 42%
    17:00 +11°C° 0 mm 6 mps 766 mmHg 47%
    18:00 +10°C° 0 mm 6 mps 765 mmHg 52%
    19:00 +8°C° 0 mm 6 mps 765 mmHg 57%
    20:00 +8°C° 0 mm 6 mps 765 mmHg 60%
    21:00 +7°C° 0 mm 6 mps 764 mmHg 62%
    22:00 +7°C° 0 mm 5 mps 764 mmHg 64%
    23:00 +7°C° 0 mm 5 mps 763 mmHg 65%

    20 October, Saturday

    Time Temperature Precipitation Wind Pressure Humidity
    00:00 +7°C° 0 mm 5 mps 762 mmHg 65%
    01:00 +7°C° 0 mm 5 mps 762 mmHg 66%
    02:00 +7°C° 0 mm 4 mps 761 mmHg 66%
    03:00 +7°C° 0 mm 4 mps 761 mmHg 65%
    04:00 +7°C° 0 mm 4 mps 760 mmHg 65%
    05:00 +10°C° 0 mm 4 mps 760 mmHg 61%
    06:00 +10°C° 0 mm 5 mps 759 mmHg 58%
    07:00 +12°C° 0 mm 5 mps 758 mmHg 54%
    08:00 +13°C° 0 mm 6 mps 758 mmHg 51%
    09:00 +14°C° 0 mm 6 mps 757 mmHg 48%
    10:00 +16°C° 0 mm 6 mps 756 mmHg 45%
    11:00 +16°C° 0 mm 6 mps 755 mmHg 45%
    12:00 +17°C° 0 mm 6 mps 754 mmHg 45%
    13:00 +17°C° 0 mm 6 mps 754 mmHg 46%
    14:00 +17°C° 0 mm 6 mps 753 mmHg 48%
    15:00 +16°C° 0 mm 5 mps 752 mmHg 51%
    16:00 +16°C° 0 mm 5 mps 751 mmHg 53%
    17:00 +15°C° 0 mm 5 mps 750 mmHg 58%
    18:00 +14°C° 0 mm 5 mps 750 mmHg 62%
    19:00 +13°C° 0 mm 4 mps 749 mmHg 67%
    20:00 +12°C° 0.1 mm 5 mps 749 mmHg 68%
    21:00 +11°C° 0.1 mm 6 mps 749 mmHg 69%
    22:00 +11°C° 0.1 mm 7 mps 749 mmHg 71%
    23:00 +9°C° 0.2 mm 8 mps 749 mmHg 64%

    21 October, Sunday

    Time Temperature Precipitation Wind Pressure Humidity
    00:00 +7°C° 0.2 mm 10 mps 749 mmHg 58%
    01:00 +4°C° 0.2 mm 12 mps 748 mmHg 52%
    02:00 +3°C° 0 mm 12 mps 749 mmHg 57%
    03:00 +3°C° 0 mm 12 mps 749 mmHg 62%
    04:00 +1°C° 0 mm 13 mps 750 mmHg 68%
    05:00 +1°C° 0 mm 13 mps 751 mmHg 68%
    06:00 +3°C° 0 mm 13 mps 752 mmHg 69%
    07:00 +3°C° 0 mm 13 mps 752 mmHg 69%
    08:00 +3°C° 0.1 mm 13 mps 753 mmHg 63%
    09:00 +3°C° 0.1 mm 13 mps 754 mmHg 57%
    10:00 +4°C° 0.1 mm 13 mps 755 mmHg 51%
    11:00 +4°C° 0 mm 12 mps 755 mmHg 49%
    12:00 +4°C° 0 mm 11 mps 756 mmHg 47%
    13:00 +6°C° 0 mm 11 mps 756 mmHg 45%
    14:00 +6°C° 0 mm 11 mps 757 mmHg 45%
    15:00 +4°C° 0 mm 11 mps 758 mmHg 45%
    16:00 +4°C° 0 mm 11 mps 759 mmHg 46%
    17:00 +3°C° 0 mm 11 mps 760 mmHg 49%
    18:00 +2°C° 0 mm 10 mps 761 mmHg 53%
    19:00 +2°C° 0 mm 10 mps 762 mmHg 56%
    20:00 +1°C° 0 mm 9 mps 762 mmHg 59%
    21:00 0°C° 0 mm 9 mps 763 mmHg 62%
    22:00 0°C° 0 mm 8 mps 763 mmHg 65%
    23:00 0°C° 0 mm 8 mps 764 mmHg 66%
    Show more